User: anonymous   Login
Location: Erp
(42.9417°N, 1.2009°E)
Time: 18:59:43
(UTC+00:00)
Language:

OPS 8737 - Orbit

View from above orbital plane
View from above orbital plane
View from above satellite
View from above satellite

Ground track
Ground track

The orbit is defined by the following mean orbital elements,

1 14690U          26068.43401740 +.00000000 +00000-0 +47043-3 0 00009
2 14690  63.2981  74.2458 0637146 123.1893 243.1939 14.13401649    09
Epoch (UTC): 09 March 2026 10:24:59
Eccentricity: 0.0637146
inclination: 63.2981°
perigee height: 387 km
apogee height: 1308 km
right ascension of ascending node: 74.2458°
argument of perigee: 123.1893°
revolutions per day: 14.13401649
mean anomaly at epoch: 243.1939°

The dashed part of the orbit path shows where the satellite is in the earth's shadow,  

DLR